TimeCST,TemperatureF,Dew PointF,Humidity,Sea Level PressureIn,VisibilityMPH,Wind Direction,Wind SpeedMPH,Gust SpeedMPH,PrecipitationIn,Events,Conditions,WindDirDegrees,DateUTC
12:53 AM,19.9,12.0,71,30.32,10.0,West,12.7,-,N/A,,Clear,260,2012-12-21 06:53:00
1:53 AM,12.9,8.1,81,30.32,10.0,Calm,Calm,-,N/A,,Clear,0,2012-12-21 07:53:00
2:53 AM,12.9,8.1,81,30.34,10.0,West,9.2,-,N/A,,Clear,260,2012-12-21 08:53:00
3:53 AM,12.0,7.0,80,30.34,10.0,West,9.2,-,N/A,,Clear,260,2012-12-21 09:53:00
4:53 AM,15.1,9.0,77,30.33,10.0,West,12.7,-,N/A,,Clear,270,2012-12-21 10:53:00
5:53 AM,10.9,6.1,81,30.35,10.0,West,8.1,-,N/A,,Clear,260,2012-12-21 11:53:00
6:53 AM,12.0,6.1,77,30.35,10.0,West,9.2,-,N/A,,Clear,270,2012-12-21 12:53:00
7:53 AM,12.0,6.1,77,30.36,10.0,WSW,5.8,-,N/A,,Clear,250,2012-12-21 13:53:00
8:53 AM,12.0,6.1,77,30.37,9.0,WSW,13.8,-,N/A,,Clear,250,2012-12-21 14:53:00
9:53 AM,18.0,9.0,68,30.35,10.0,West,10.4,-,N/A,,Clear,260,2012-12-21 15:53:00
10:53 AM,18.0,10.0,71,30.36,10.0,SW,8.1,-,N/A,,Clear,230,2012-12-21 16:53:00
11:53 AM,24.1,15.1,69,30.32,10.0,WSW,8.1,-,N/A,,Clear,250,2012-12-21 17:53:00
12:53 PM,28.9,17.1,61,30.28,10.0,WSW,9.2,-,N/A,,Clear,250,2012-12-21 18:53:00
1:53 PM,30.0,19.9,66,30.26,10.0,NW,4.6,-,N/A,,Clear,310,2012-12-21 19:53:00
2:53 PM,30.9,21.0,67,30.24,10.0,Calm,Calm,-,N/A,,Clear,0,2012-12-21 20:53:00
3:53 PM,32.0,21.0,64,30.23,10.0,Calm,Calm,-,N/A,,Clear,0,2012-12-21 21:53:00
4:53 PM,28.9,19.9,69,30.22,10.0,Calm,Calm,-,N/A,,Clear,0,2012-12-21 22:53:00
5:53 PM,28.0,19.0,69,30.22,10.0,Calm,Calm,-,N/A,,Clear,0,2012-12-21 23:53:00
6:53 PM,24.1,17.1,75,30.23,10.0,East,3.5,-,N/A,,Clear,100,2012-12-22 00:53:00
7:53 PM,23.0,18.0,81,30.23,10.0,Calm,Calm,-,N/A,,Clear,0,2012-12-22 01:53:00
8:53 PM,21.0,16.0,81,30.22,10.0,SSW,3.5,-,N/A,,Clear,200,2012-12-22 02:53:00
9:53 PM,19.0,15.1,85,30.20,8.0,SW,3.5,-,N/A,,Clear,230,2012-12-22 03:53:00
10:53 PM,16.0,14.0,92,30.21,7.0,WSW,5.8,-,N/A,,Clear,240,2012-12-22 04:53:00
11:53 PM,12.9,10.9,92,30.19,5.0,West,5.8,-,N/A,,Clear,260,2012-12-22 05:53:00